This demonstration page uses our WeatherBlox Daily Observations layout. Learn more.

Hourly Observations for August 12, 2017

Temp ( °F °C ) Dew Point ( °F °C ) Humidity (%) Winds ( mph kmh ) Pressure ( in mb ) Visibility ( mi km ) Precip ( " mm )
12:15 am 00:15 Clear 62 16.8 56 13.2 79 79 SE 5 7 30.06 1018 10 16.09344 0 0
12:35 am 00:35 Clear 64 17.5 56 13.2 76 76 SE 6 9 30.03 1017 10 16.09344 0 0
12:55 am 00:55 Clear 62 16.8 55 13 78 78 SSE 6 9 30.06 1018 10 16.09344 0 0
1:15 am 01:15 Clear 62 16.6 56 13.2 80 80 SSE 3 6 30.06 1018 10 16.09344 0 0
1:35 am 01:35 Clear 62 16.6 56 13.3 81 81 SE 3 6 30.06 1018 10 16.09344 0 0
1:55 am 01:55 Clear 63 17 56 13.5 80 80 SE 6 9 30.06 1018 10 16.09344 0 0
2:15 am 02:15 Clear 64 17.5 56 13.5 78 78 SE 7 11 30.03 1017 10 16.09344 0 0
2:35 am 02:35 Clear 62 16.9 56 13.5 81 81 SSE 7 11 30.06 1018 10 16.09344 0 0
2:55 am 02:55 Clear 63 17.1 56 13.5 80 80 SSE 7 11 30.06 1018 10 16.09344 0 0
3:15 am 03:15 Partly Cloudy 62 16.7 56 13.5 82 82 SSE 8 13 30.06 1018 10 16.09344 0 0
3:35 am 03:35 Partly Cloudy 62 16.7 56 13.5 82 82 S 7 11 30.06 1018 10 16.09344 0 0
3:55 am 03:55 Cloudy 63 17.1 56 13.6 80 80 SE 5 7 30.06 1018 10 16.09344 0 0
4:15 am 04:15 Mostly Cloudy 64 17.7 56 13.3 76 76 SE 6 9 30.03 1017 10 16.09344 0 0
4:35 am 04:35 Mostly Cloudy 65 18.1 56 13.4 74 74 SE 7 11 30.03 1017 10 16.09344 0 0
4:55 am 04:55 Cloudy 65 18.2 56 13.5 74 74 SE 7 11 30.03 1017 10 16.09344 0 0
5:15 am 05:15 Cloudy 63 17 56 13.5 80 80 E 5 7 30.06 1018 10 16.09344 0 0
5:35 am 05:35 Cloudy 63 17 56 13.5 80 80 ESE 5 7 30.06 1018 10 16.09344 0 0
5:55 am 05:55 Cloudy 63 17.3 57 13.7 80 80 SE 6 9 30.06 1018 10 16.09344 0 0
6:15 am 06:15 Cloudy 64 17.6 57 13.7 78 78 SSE 6 9 30.03 1017 10 16.09344 0 0
6:35 am 06:35 Cloudy 63 17 57 14 83 83 SSE 5 7 30.06 1018 10 16.09344 0 0
6:55 am 06:55 Cloudy 63 17 57 14.1 83 83 S 5 7 30.06 1018 10 16.09344 0 0
7:15 am 07:15 Cloudy 64 17.5 57 14.1 81 81 S 3 6 30.03 1017 10 16.09344 0 0
7:35 am 07:35 Cloudy 64 17.5 57 14 80 80 SSE 3 6 30.03 1017 10 16.09344 0 0
7:55 am 07:55 Mostly Cloudy 65 18.1 57 14 77 77 SSE 5 7 30.03 1017 10 16.09344 0 0
8:15 am 08:15 Mostly Cloudy 66 19 57 14 73 73 S 5 7 30.03 1017 10 16.09344 0 0
8:35 am 08:35 Cloudy 67 19.5 57 14 71 71 SSE 6 9 30.03 1017 10 16.09344 0 0
8:55 am 08:55 Cloudy 67 19.5 57 14 71 71 SE 5 7 30.03 1017 10 16.09344 0 0
9:15 am 09:15 Cloudy 67 19.6 57 14.1 71 71 SSE 6 9 30.03 1017 10 16.09344 0 0
9:35 am 09:35 Cloudy 69 20.6 58 14.5 68 68 S 8 13 30.03 1017 10 16.09344 0 0
9:55 am 09:55 Cloudy 71 21.7 58 14.6 64 64 S 10 17 30 1016 10 16.09344 0 0
10:15 am 10:15 Cloudy 72 22.2 59 14.8 63 63 SSE 10 17 30 1016 10 16.09344 0 0
10:35 am 10:35 Mostly Cloudy 73 22.7 59 15.1 62 62 SSE 14 22 30 1016 10 16.09344 0 0
10:55 am 10:55 Partly Cloudy 75 23.9 59 15.1 58 58 SSE 15 24 30 1016 10 16.09344 0 0
11:15 am 11:15 Mostly Cloudy 75 24.1 59 15 57 57 S 15 24 30 1016 10 16.09344 0 0
11:35 am 11:35 Cloudy 76 24.2 59 15 57 57 S 17 28 30 1016 10 16.09344 0 0
11:55 am 11:55 Partly Cloudy 77 25 60 15.5 56 56 SSE 16 26 29.97 1015 10 16.09344 0 0
12:15 pm 12:15 Partly Cloudy 77 25.1 60 15.6 56 56 S 17 28 29.97 1015 10 16.09344 0 0
12:35 pm 12:35 Partly Cloudy 78 25.7 60 15.8 54 54 S 15 24 29.97 1015 10 16.09344 0 0
12:55 pm 12:55 Partly Cloudy 78 25.7 61 16.1 55 55 SSE 16 26 29.94 1014 10 16.09344 0 0
1:15 pm 13:15 Partly Cloudy 79 26.3 62 16.5 55 55 S 15 24 29.94 1014 10 16.09344 0 0
1:35 pm 13:35 Mostly Cloudy 78 25.6 61 16.2 56 56 S 14 22 29.94 1014 10 16.09344 0 0
1:55 pm 13:55 Mostly Cloudy 80 26.5 62 16.8 55 55 SSE 14 22 29.94 1014 10 16.09344 0 0
2:15 pm 14:15 Mostly Cloudy 80 26.5 62 16.6 55 55 SSE 14 22 29.94 1014 10 16.09344 0 0
2:35 pm 14:35 Cloudy 79 26.1 62 16.7 56 56 SSE 12 19 29.94 1014 10 16.09344 0 0
2:55 pm 14:55 Cloudy 79 26.3 62 16.6 55 55 SSE 16 26 29.91 1013 10 16.09344 0 0
3:15 pm 15:15 Cloudy 79 26.3 63 17.3 58 58 SSE 18 30 29.91 1013 10 16.09344 0 0
3:35 pm 15:35 Mostly Cloudy 80 26.6 62 16.6 54 54 SSE 18 30 29.91 1013 10 16.09344 0 0
3:55 pm 15:55 Mostly Cloudy 80 26.7 63 17 55 55 S 17 28 29.91 1013 10 16.09344 0 0
4:15 pm 16:15 Mostly Cloudy 80 26.7 63 17.2 56 56 SSE 18 30 29.91 1013 10 16.09344 0 0
4:35 pm 16:35 Mostly Cloudy 79 26.1 63 17.4 59 59 SSE 14 22 29.91 1013 10 16.09344 0 0
4:55 pm 16:55 Cloudy 79 26.2 63 17.4 58 58 SSE 14 22 29.91 1013 10 16.09344 0 0
5:15 pm 17:15 Cloudy 79 25.9 64 17.5 60 60 S 13 20 29.88 1012 10 16.09344 0 0
5:35 pm 17:35 Cloudy 79 26.2 64 17.6 59 59 SSE 15 24 29.88 1012 10 16.09344 0 0
5:55 pm 17:55 Cloudy 78 25.6 63 17.2 60 60 SSE 15 24 29.88 1012 10 16.09344 0 0
6:15 pm 18:15 Cloudy 78 25.4 63 17.1 60 60 SSE 12 19 29.88 1012 10 16.09344 0 0
6:35 pm 18:35 Cloudy 79 26 64 17.6 60 60 SE 13 20 29.85 1011 10 16.09344 0 0
6:55 pm 18:55 Mostly Cloudy 77 25.2 62 16.7 59 59 SSE 17 28 29.85 1011 10 16.09344 0 0
7:15 pm 19:15 Partly Cloudy 77 24.8 62 16.8 61 61 SSE 15 24 29.83 1010 10 16.09344 0 0
7:35 pm 19:35 Sunny 76 24.2 63 17 64 64 SSE 12 19 29.83 1010 10 16.09344 0 0
7:55 pm 19:55 Partly Cloudy 75 24 62 16.8 64 64 SE 8 13 29.83 1010 10 16.09344 0 0
8:15 pm 20:15 Cloudy 75 23.7 63 17 66 66 SE 9 15 29.85 1011 10 16.09344 0 0
8:35 pm 20:35 Cloudy 74 23.5 63 17.2 68 68 SSE 10 17 29.85 1011 10 16.09344 0 0
8:55 pm 20:55 Mostly Cloudy with Rain 73 22.7 64 17.5 73 73 S 8 13 29.88 1012 10 16.09344 0 0
9:15 pm 21:15 Mostly Cloudy 73 22.5 64 17.5 73 73 SSE 8 13 29.88 1012 10 16.09344 0 0
9:35 pm 21:35 Mostly Cloudy 72 22.4 64 17.8 75 75 S 9 15 29.88 1012 10 16.09344 0 0
9:55 pm 21:55 Cloudy with Thunderstorms 71 21.5 65 18.3 82 82 WSW 14 22 29.91 1013 7 11.265408 0.03 0.762
10:15 pm 22:15 Cloudy 70 21.2 65 18.6 85 85 WSW 10 17 29.94 1014 5 8.04672 0.13 3.302
10:35 pm 22:35 Cloudy with Nearby Thunderstorms 70 21 66 18.8 87 87 SSW 23 37 29.88 1012 5 8.04672 0.2 5.08
10:55 pm 22:55 Mostly Cloudy with Light Rain 70 21 65 18.5 86 86 SSW 28 44 29.83 1010 7 11.265408 0.22 5.588
11:15 pm 23:15 Clear 69 20.5 63 17 80 80 SSW 18 30 29.83 1010 10 16.09344 0.01 0.254
11:35 pm 23:35 Clear 69 20.3 61 16.3 78 78 SW 16 26 29.85 1011 10 16.09344 0.01 0.254
11:55 pm 23:55 Mostly Cloudy 68 20.1 62 16.5 80 80 ENE 3 6 29.91 1013 10 16.09344 0.01 0.254

Powered by AerisWeather